Location: Del Amo
(33.8464°N, 118.2104°W)
Time: 07:55:34
(UTC+00:00)

Vanguard 1 Rocket - Pass Details

Date: 14 September 2024
Orbit: 650 x 4218 km, 34.3° (Epoch: 09 October)

Event Time Altitude Azimuth Distance (km) Brightness Sun altitude
Rises 11:13:16 0° 238° (WSW) 5,147 - -29.3°
Reaches altitude 10° 11:15:58 10° 236° (SW) 4,498 - -28.8°
Exits shadow 11:21:54 38° 227° (SW) 3,425 9.7 -27.6°
Maximum altitude 11:29:44 73° 154° (SSE) 3,224 10.0 -26.2°
Drops below altitude 10° 11:54:18 10° 76° (ENE) 7,385 13.2 -21.4°
Sets 12:00:22 0° 75° (ENE) 8,465 13.9 -20.2°
